Current weather by "City, St" or "zip code"  
 

Current Conditions: Ellsworth Air Force Base, SD

Fair


53.0 F

Last Updated on Oct 29 2020, 5:56 pm MDT
Humidity: 51%
Wind Speed: N 11.5 mph
Barometer 30.00 in
Dewpoint: 35.4 F
Visibility: 10.00 mi
Precip: --
Heat Index: NA
Wind Chill: 49 F
Current conditions at:

Ellsworth Air Force Base, SD (KRCA)

Lat: 44.15 Lon: 103.1

Local Radar Image active severe weather and emergency alerts image image weather storm and storm spotter reports image weather observation monitoring service image
Local
Radar
Active
Alerts
Storm Reports Obs
Monitoring

Sign-up For Email & Text Message Weather Alert Notification Services



Advertise Here

Observation History for Ellsworth Air Force Base, SD


Time Wind
(mph)
Vis
(mi)
Weather Precip (in) Temperature (F) Relative
Humidity
Wind
Chill
(F)
Heat
Index
(F)
Pressure
Air Dwpt altimeter
(in)
sea level
(mb)
Rmks
5:56 pm MDT N 11.5 10.00 Fair -- 53.0 35.4 51% 49 NA 30.00 1017.2
4:56 pm MDT N 8.1 10.00 Fair -- 57.0 37.2 48% 55 NA 29.98 1016.3
3:56 pm MDT N 6.9 10.00 A Few Clouds -- 60.0 36.0 40% 59 NA 29.96 1015.3
2:56 pm MDT NW 3.5 10.00 Mostly Cloudy -- 60.0 38.1 45% NA NA 29.96 1015.3
1:56 pm MDT N 0.0 10.00 Mostly Cloudy -- 59.0 36.5 43% NA NA 29.95 1014.9
12:56 pm MDT N 0.0 10.00 Mostly Cloudy -- 54.0 42.3 64% NA NA 29.97 1016.2
11:56 am MDT SW 3.5 10.00 Mostly Cloudy -- 56.0 37.9 51% NA NA 29.98 1016.5
10:56 am MDT SW 4.6 10.00 Mostly Cloudy -- 54.0 38.1 55% 53 NA 29.99 1016.9
9:56 am MDT N 0.0 10.00 Mostly Cloudy -- 44.0 35.8 72% NA NA 29.99 1017.4
8:56 am MDT W 4.6 10.00 Mostly Cloudy -- 37.0 33.3 88% 33 NA 30.00 1018.3
7:56 am MDT N 0.0 10.00 Partly Cloudy -- 36.0 31.8 86% NA NA 30.01 1018.7
5:56 am MDT N 0.0 10.00 Overcast -- 36.0 32.5 86% NA NA 30.04 1019.4
4:56 am MDT SW 4.6 10.00 Overcast -- 37.0 32.4 83% 33 NA 30.05 1019.5
2:56 am MDT S 8.1 10.00 Overcast -- 37.0 32.2 82% 31 NA 30.09 1020.9
12:56 am MDT S 5.8 10.00 Overcast -- 36.0 31.8 86% 31 NA 30.13 1022.3
11:56 pm MDT SE 4.6 10.00 Overcast -- 34.0 30.9 88% 30 NA 30.15 1023.3
10:56 pm MDT SE 3.5 10.00 Fair -- 36.0 31.6 83% NA NA 30.16 1023.6
9:56 pm MDT SE 3.5 10.00 Overcast -- 36.0 32.0 84% NA NA 30.16 1023.6
8:56 pm MDT SW 3.5 10.00 Overcast -- 37.0 32.5 84% NA NA 30.16 1023.3
7:56 pm MDT N 4.6 10.00 Overcast -- 39.0 32.5 77% 36 NA 30.17 1023.7
6:56 pm MDT N 3.5 10.00 Overcast -- 40.0 33.3 76% NA NA 30.16 1023.1

Regional Weather Observation


Rapid City, Rapid City Regional Airport, SD (KRAP)

Fair
52.0 F

Spearfish / Clyde Ice, SD (KSPF)

Fair
52.0 F

Custer, Custer County Airport, SD (KCUT)

Fair
49.0 F

Hulett Municipal Airport, WY (KW43)

NULL
68.0 F

Mondell Field, WY (KECS)

Fair
52.0 F

Faith, SD (KD07)

NULL
42.0 F